Hourly Data Report for May 14, 2018

TORONTO CITY
ONTARIO
Current Station Operator: ECCC - MSC

43°40'00.000" N
79°24'00.000" W
112.50 m
6158355
71508
XTO

Download Data

Hourly Data (May 2018)
Hourly Data Report for May 14, 2018
TIME
LST
Temp Definition
°C
Dew Point Definition
°C
Rel Hum Definition
%
Precip. Amount Definition
mm

Wind Dir Definition
10's deg

Wind Spd Definition
km/h
Visibility Definition
km
Stn Press Definition
kPa
Hmdx Definition


Wind Chill Definition


Weather Definition


00:00 11.2 5.4 68 0.0 LegendMM LegendMM   100.05     LegendNANA
01:00 11.2 5.5 68 0.0 LegendMM LegendMM   100.01     LegendNANA
02:00 10.8 5.2 68 0.0 LegendMM LegendMM   99.97     LegendNANA
03:00 9.6 5.2 74 0.0 LegendMM LegendMM   99.99     LegendNANA
04:00 9.3 5.8 79 0.0 LegendMM LegendMM   100.02     LegendNANA
05:00 9.0 5.9 81 0.0 LegendMM LegendMM   100.04     LegendNANA
06:00 10.9 6.9 76 0.0 LegendMM LegendMM   100.02     LegendNANA
07:00 13.6 6.3 61 0.0 LegendMM LegendMM   100.04     LegendNANA
08:00 14.5 7.3 62 0.0 LegendMM LegendMM   100.05     LegendNANA
09:00 15.9 9.3 65 0.0 LegendMM LegendMM   100.07     LegendNANA
10:00 16.7 9.8 64 0.0 LegendMM LegendMM   100.08     LegendNANA
11:00 18.9 10.9 60 0.0 LegendMM LegendMM   100.10     LegendNANA
12:00 19.5 10.9 57 0.0 LegendMM LegendMM   100.10     LegendNANA
13:00 20.0 10.6 54 0.0 LegendMM LegendMM   100.00     LegendNANA
14:00 19.6 10.3 55 0.0 LegendMM LegendMM   99.92     LegendNANA
15:00 19.3 10.9 58 0.0 LegendMM LegendMM   99.79     LegendNANA
16:00 20.1 11.6 58 0.0 LegendMM LegendMM   99.65     LegendNANA
17:00 19.6 11.7 60 0.0 LegendMM LegendMM   99.61     LegendNANA
18:00 19.8 11.4 59 0.0 LegendMM LegendMM   99.68     LegendNANA
19:00 17.8 11.9 69 0.0 LegendMM LegendMM   99.70     LegendNANA
20:00 17.5 12.2 71 0.0 LegendMM LegendMM   99.66     LegendNANA
21:00 17.9 12.5 71 0.0 LegendMM LegendMM   99.64     LegendNANA
22:00 17.3 12.2 72 0.0 LegendMM LegendMM   99.69     LegendNANA
23:00 17.5 13.0 75 0.0 LegendMM LegendMM   99.65     LegendNANA

Notes on Data Quality.

Legend

  • E = Estimated
  • M = Missing
  • NA = Not Available*
  • [empty] = Indicates an unobserved value
Date modified: